#timestamp,LO_Frequency,Hit,Temp,Hum 
1479099615.9,286047041.8,N,0.0,0.0
1479099635.7,286047038.3,N,0.0,0.0
1479099655.5,286047038.5,N,0.0,0.0
1479099675.4,286047042.1,N,0.0,0.0
1479099695.2,286047031.3,N,0.0,0.0
1479099715.1,286047040.6,N,0.0,0.0
1479099716.0,286047040.6,N,0.0,0.0
1479099735.8,286047043.1,N,0.0,0.0
1479099755.6,286047036.6,N,0.0,0.0
1479099775.5,286047046.0,N,0.0,0.0
1479099795.3,286047043.9,N,0.0,0.0
1479099815.1,286047044.0,N,0.0,0.0
1479099835.9,286047037.1,N,0.0,0.0
1479099855.7,286047042.8,N,0.0,0.0
1479099875.6,286047040.5,N,0.0,0.0
1479099895.4,286047045.0,N,0.0,0.0
1479099915.2,286047043.0,N,0.0,0.0
1479099935.1,286047036.5,N,0.0,0.0
1479099936.0,286047036.5,N,0.0,0.0
1479099955.8,286047050.4,N,0.0,0.0
1479099975.6,286047041.5,N,0.0,0.0
1479099995.5,286047034.7,N,0.0,0.0
1479100015.3,286047039.9,N,0.0,0.0
1479100035.2,286047039.2,N,0.0,0.0
1479100055.9,286047041.2,N,0.0,0.0
1479100075.7,286047040.9,N,0.0,0.0
1479100095.6,286047040.9,N,0.0,0.0
1479100115.4,286047038.4,N,0.0,0.0
1479100135.2,286047038.4,N,0.0,0.0
1479100155.1,286047041.1,N,0.0,0.0
1479100156.0,286047041.1,N,0.0,0.0
1479100175.8,286047041.9,N,0.0,0.0
1479100195.7,286047041.8,N,0.0,0.0
1479100215.5,286047023.8,N,0.0,0.0
1479100235.3,286047051.8,N,0.0,0.0
1479100255.2,286047042.2,N,0.0,0.0
1479100275.0,286047040.8,N,0.0,0.0
1479100275.9,286047040.8,N,0.0,0.0
1479100295.8,286047032.9,N,0.0,0.0
1479100315.6,286047037.1,N,0.0,0.0
1479100335.4,286047030.9,N,0.0,0.0
1479100355.3,286047032.7,N,0.0,0.0
1479100375.1,286047080.7,N,0.0,0.0
1479100376.0,286047080.7,N,0.0,0.0
1479100395.8,286047037.1,N,0.0,0.0
1479100415.7,286047039.2,N,0.0,0.0
1479100435.5,286047039.0,N,0.0,0.0
1479100455.4,286047045.2,N,0.0,0.0
1479100475.2,286047040.2,N,0.0,0.0
1479100495.0,286047038.5,N,0.0,0.0
1479100495.9,286047038.5,N,0.0,0.0
1479100515.8,286047040.6,N,0.0,0.0
1479100535.6,286047038.7,N,0.0,0.0
1479100555.4,286047041.2,N,0.0,0.0
1479100575.3,286047037.3,N,0.0,0.0
1479100595.1,286047035.9,N,0.0,0.0
1479100615.9,286047036.2,N,0.0,0.0
1479100635.7,286047039.1,N,0.0,0.0
1479100655.5,286047037.5,N,0.0,0.0
1479100675.4,286047029.9,N,0.0,0.0
1479100695.2,286047038.2,N,0.0,0.0
1479100715.0,286047036.6,N,0.0,0.0
1479100715.9,286047036.6,N,0.0,0.0
1479100735.8,286047037.8,N,0.0,0.0
1479100755.6,286047037.2,N,0.0,0.0
1479100775.5,286047015.9,N,0.0,0.0
1479100795.3,286047018.8,N,0.0,0.0
1479100815.1,286047018.5,N,0.0,0.0
1479100835.9,286047017.6,N,0.0,0.0
1479100855.7,286047015.8,N,0.0,0.0
1479100875.5,286047018.7,N,0.0,0.0
1479100895.4,286047039.5,N,0.0,0.0
1479100915.2,286047037.9,N,0.0,0.0
1479100935.0,286047036.8,N,0.0,0.0
1479100936.0,286047036.8,N,0.0,0.0
1479100955.8,286047037.2,N,0.0,0.0
1479100975.6,286047038.3,N,0.0,0.0
1479100995.5,286047038.7,N,0.0,0.0
1479101015.3,286047038.4,N,0.0,0.0
1479101035.1,286047038.1,N,0.0,0.0
1479101055.9,286047036.5,N,0.0,0.0
1479101075.7,286047037.0,N,0.0,0.0
1479101095.6,286047037.1,N,0.0,0.0
1479101115.4,286047039.5,N,0.0,0.0
1479101135.2,286047039.1,N,0.0,0.0
1479101155.1,286047037.0,N,0.0,0.0
1479101156.0,286047037.0,N,0.0,0.0
1479101175.8,286047039.4,N,0.0,0.0
1479101195.7,286047235.9,Y,0.0,0.0
1479101215.5,286046988.2,N,0.0,0.0
1479101235.3,286046987.0,N,0.0,0.0
1479101255.2,286046989.6,N,0.0,0.0
1479101275.9,286046989.9,N,0.0,0.0
1479101295.7,286046986.9,N,0.0,0.0
1479101315.6,286046989.9,N,0.0,0.0
1479101335.4,286046988.1,N,0.0,0.0
1479101355.2,286046987.0,N,0.0,0.0
1479101375.1,286046993.2,N,0.0,0.0
1479101376.0,286046993.2,N,0.0,0.0
1479101395.8,286046987.0,N,0.0,0.0
1479101415.7,286046982.5,N,0.0,0.0
1479101435.5,286046989.0,N,0.0,0.0
1479101455.3,286046987.2,N,0.0,0.0
1479101475.2,286046991.4,N,0.0,0.0
1479101495.0,286046988.8,N,0.0,0.0
1479101495.9,286046988.8,N,0.0,0.0
1479101515.8,286046984.3,N,0.0,0.0
1479101535.6,286046989.7,N,0.0,0.0
1479101555.4,286046984.3,N,0.0,0.0
1479101575.3,286046989.7,N,0.0,0.0
1479101595.1,286046984.8,N,0.0,0.0
1479101596.0,286046984.8,N,0.0,0.0
1479101615.8,286046982.2,N,0.0,0.0
1479101635.7,286046982.2,N,0.0,0.0
1479101655.5,286046982.0,N,0.0,0.0
1479101675.3,286046983.8,N,0.0,0.0
1479101695.2,286046983.9,N,0.0,0.0
1479101715.0,286046969.5,N,0.0,0.0
1479101715.9,286046969.5,N,0.0,0.0
1479101735.8,286046986.1,N,0.0,0.0
1479101755.6,286046989.8,N,0.0,0.0
1479101775.4,286046989.1,N,0.0,0.0
1479101795.3,286046989.5,N,0.0,0.0
1479101815.1,286046988.3,N,0.0,0.0
1479101835.9,286046986.3,N,0.0,0.0
1479101855.7,286047020.2,N,0.0,0.0
1479101875.5,286046986.0,N,0.0,0.0
1479101895.4,286046986.8,N,0.0,0.0
1479101915.2,286046993.5,N,0.0,0.0
1479101935.0,286046986.6,N,0.0,0.0
1479101935.9,286046986.6,N,0.0,0.0
1479101955.8,286046982.5,N,0.0,0.0
1479101975.6,286046982.2,N,0.0,0.0
1479101995.4,286046980.5,N,0.0,0.0
1479102015.3,286046983.1,N,0.0,0.0
1479102035.1,286046985.2,N,0.0,0.0
1479102055.9,286046986.2,N,0.0,0.0
1479102075.7,286046985.2,N,0.0,0.0
1479102095.5,286046982.6,N,0.0,0.0
1479102115.4,286046984.1,N,0.0,0.0
1479102135.2,286046982.4,N,0.0,0.0
1479102155.0,286046984.3,N,0.0,0.0
1479102155.9,286046984.3,N,0.0,0.0
1479102175.8,286046986.1,N,0.0,0.0
1479102195.6,286046987.9,N,0.0,0.0
1479102215.5,286046985.8,N,0.0,0.0
1479102235.3,286046985.6,N,0.0,0.0
1479102255.1,286046985.7,N,0.0,0.0
1479102275.9,286046985.4,N,0.0,0.0
1479102295.7,286046985.5,N,0.0,0.0
1479102315.5,286046985.5,N,0.0,0.0
1479102335.4,286046986.1,N,0.0,0.0
1479102355.2,286046986.4,N,0.0,0.0
1479102375.1,286046986.8,N,0.0,0.0
1479102376.0,286046986.8,N,0.0,0.0
1479102395.8,286046985.9,N,0.0,0.0
1479102415.6,286046988.4,N,0.0,0.0
1479102435.5,286046984.9,N,0.0,0.0
1479102455.3,286046981.8,N,0.0,0.0
1479102475.1,286046985.0,N,0.0,0.0
1479102495.9,286046982.2,N,0.0,0.0
1479102515.7,286046985.1,N,0.0,0.0
1479102535.6,286046984.6,N,0.0,0.0
1479102555.4,286046982.1,N,0.0,0.0
1479102575.2,286046982.2,N,0.0,0.0
1479102595.1,286046984.5,N,0.0,0.0
1479102596.0,286046984.5,N,0.0,0.0
1479102615.8,286046985.1,N,0.0,0.0
1479102635.6,286046985.1,N,0.0,0.0
1479102655.5,286046982.1,N,0.0,0.0
1479102675.3,286046986.8,N,0.0,0.0
1479102695.2,286046984.7,N,0.0,0.0
1479102715.9,286046986.5,N,0.0,0.0
1479102735.7,286046984.8,N,0.0,0.0
1479102755.6,286046983.9,N,0.0,0.0
1479102775.4,286046982.8,N,0.0,0.0
1479102795.2,286046984.6,N,0.0,0.0
1479102815.1,286046984.6,N,0.0,0.0
1479102816.0,286046984.6,N,0.0,0.0
1479102835.8,286046984.5,N,0.0,0.0
1479102855.7,286046998.3,N,0.0,0.0
1479102875.5,286046986.3,N,0.0,0.0
1479102895.3,286046986.4,N,0.0,0.0
1479102915.2,286046986.1,N,0.0,0.0
1479102935.9,286046986.6,N,0.0,0.0
1479102955.7,286046987.7,N,0.0,0.0
1479102975.6,286046985.6,N,0.0,0.0
1479102995.4,286046984.2,N,0.0,0.0
1479103015.2,286046986.3,N,0.0,0.0
1479103035.1,286046985.7,N,0.0,0.0
1479103036.0,286046985.7,N,0.0,0.0
1479103055.8,286046988.2,N,0.0,0.0
1479103075.7,286046985.6,N,0.0,0.0
1479103095.5,286046988.2,N,0.0,0.0
1479103115.3,286046986.3,N,0.0,0.0
1479103135.2,286046983.7,N,0.0,0.0
1479103155.0,286046984.6,N,0.0,0.0
1479103155.9,286046984.6,N,0.0,0.0
1479103175.8,286046984.4,N,0.0,0.0
1479103195.6,286046986.8,N,0.0,0.0
